Hourly Weather Lugi

Today, 16 June, Wednesday

Time Temperature Precipitation Wind Pressure Humidity
00:00 +14°C° 0 mm 3 mps 755 mmHg 90%
01:00 +13°C° 0 mm 3 mps 755 mmHg 89%
02:00 +12°C° 0 mm 3 mps 756 mmHg 91%
03:00 +12°C° 0 mm 3 mps 756 mmHg 93%
04:00 +13°C° 0 mm 2 mps 756 mmHg 95%
05:00 +13°C° 0 mm 3 mps 756 mmHg 89%
06:00 +14°C° 0 mm 3 mps 756 mmHg 84%
07:00 +16°C° 0 mm 3 mps 756 mmHg 79%
08:00 +18°C° 0 mm 3 mps 756 mmHg 75%
09:00 +20°C° 0 mm 2 mps 756 mmHg 70%
10:00 +21°C° 0 mm 2 mps 756 mmHg 66%
11:00 +23°C° 0 mm 2 mps 756 mmHg 64%
12:00 +24°C° 0 mm 2 mps 756 mmHg 61%
13:00 +25°C° 0 mm 2 mps 756 mmHg 59%
14:00 +25°C° 0 mm 1 mps 755 mmHg 59%
15:00 +25°C° 0 mm 1 mps 755 mmHg 58%
16:00 +26°C° 0 mm 1 mps 755 mmHg 58%
17:00 +25°C° 0 mm 1 mps 755 mmHg 63%
18:00 +24°C° 0 mm 2 mps 755 mmHg 68%
19:00 +23°C° 0 mm 2 mps 755 mmHg 73%
20:00 +21°C° 0 mm 3 mps 755 mmHg 76%
21:00 +19°C° 0 mm 3 mps 755 mmHg 79%
22:00 +18°C° 0 mm 3 mps 755 mmHg 83%
23:00 +17°C° 0 mm 3 mps 755 mmHg 85%

Tomorrow, 17 June, Thursday

Time Temperature Precipitation Wind Pressure Humidity
00:00 +17°C° 0 mm 3 mps 755 mmHg 87%
01:00 +17°C° 0 mm 3 mps 755 mmHg 89%
02:00 +16°C° 0 mm 3 mps 755 mmHg 91%
03:00 +16°C° 0 mm 3 mps 755 mmHg 92%
04:00 +16°C° 0 mm 3 mps 755 mmHg 94%
05:00 +18°C° 0 mm 3 mps 755 mmHg 88%
06:00 +20°C° 0 mm 3 mps 755 mmHg 82%
07:00 +21°C° 0 mm 4 mps 756 mmHg 76%
08:00 +23°C° 0 mm 4 mps 756 mmHg 71%
09:00 +25°C° 0 mm 4 mps 756 mmHg 66%
10:00 +27°C° 0 mm 5 mps 756 mmHg 61%
11:00 +28°C° 0 mm 5 mps 756 mmHg 58%
12:00 +28°C° 0 mm 5 mps 756 mmHg 56%
13:00 +29°C° 0 mm 5 mps 756 mmHg 53%
14:00 +29°C° 0 mm 4 mps 755 mmHg 53%
15:00 +29°C° 0 mm 4 mps 755 mmHg 52%
16:00 +29°C° 0 mm 4 mps 755 mmHg 52%
17:00 +28°C° 0 mm 4 mps 755 mmHg 59%
18:00 +26°C° 0 mm 4 mps 755 mmHg 67%
19:00 +25°C° 0 mm 3 mps 755 mmHg 74%
20:00 +24°C° 0 mm 3 mps 755 mmHg 75%
21:00 +21°C° 0 mm 4 mps 755 mmHg 77%
22:00 +20°C° 0 mm 4 mps 756 mmHg 78%
23:00 +19°C° 0 mm 4 mps 755 mmHg 79%

Day after tomorrow, 18 June, Friday

Time Temperature Precipitation Wind Pressure Humidity
00:00 +19°C° 0 mm 4 mps 755 mmHg 80%
01:00 +18°C° 0 mm 4 mps 755 mmHg 81%
02:00 +18°C° 0 mm 3 mps 755 mmHg 82%
03:00 +17°C° 0 mm 3 mps 755 mmHg 84%
04:00 +17°C° 0 mm 3 mps 755 mmHg 85%
05:00 +18°C° 0 mm 3 mps 755 mmHg 81%
06:00 +20°C° 0 mm 3 mps 755 mmHg 77%
07:00 +21°C° 0 mm 3 mps 755 mmHg 73%
08:00 +23°C° 0 mm 4 mps 755 mmHg 68%
09:00 +26°C° 0 mm 4 mps 755 mmHg 63%
10:00 +28°C° 0 mm 4 mps 755 mmHg 57%
11:00 +29°C° 0 mm 4 mps 755 mmHg 54%
12:00 +30°C° 0 mm 4 mps 755 mmHg 50%
13:00 +32°C° 0 mm 4 mps 754 mmHg 47%
14:00 +32°C° 0 mm 4 mps 754 mmHg 48%
15:00 +32°C° 0 mm 4 mps 754 mmHg 49%
16:00 +32°C° 0 mm 4 mps 754 mmHg 50%
17:00 +29°C° 0 mm 4 mps 754 mmHg 57%
18:00 +28°C° 0 mm 4 mps 753 mmHg 64%
19:00 +26°C° 0 mm 4 mps 753 mmHg 71%
20:00 +25°C° 0 mm 4 mps 753 mmHg 73%
21:00 +23°C° 0 mm 4 mps 754 mmHg 75%
22:00 +22°C° 0 mm 4 mps 754 mmHg 78%
23:00 +21°C° 0 mm 4 mps 754 mmHg 79%

19 June, Saturday

Time Temperature Precipitation Wind Pressure Humidity
00:00 +21°C° 0 mm 4 mps 754 mmHg 81%
01:00 +20°C° 0 mm 4 mps 754 mmHg 83%
02:00 +20°C° 0 mm 3 mps 754 mmHg 86%
03:00 +19°C° 0 mm 3 mps 754 mmHg 88%
04:00 +19°C° 0 mm 3 mps 754 mmHg 91%
05:00 +20°C° 0 mm 3 mps 754 mmHg 86%
06:00 +22°C° 0 mm 3 mps 754 mmHg 81%
07:00 +25°C° 0 mm 4 mps 754 mmHg 75%
08:00 +26°C° 0 mm 4 mps 753 mmHg 70%
09:00 +28°C° 0 mm 3 mps 753 mmHg 64%
10:00 +30°C° 0 mm 3 mps 753 mmHg 58%
11:00 +30°C° 0 mm 3 mps 753 mmHg 55%
12:00 +31°C° 0 mm 2 mps 753 mmHg 51%
13:00 +32°C° 0 mm 2 mps 753 mmHg 48%
14:00 +32°C° 0 mm 2 mps 753 mmHg 47%
15:00 +34°C° 0 mm 2 mps 752 mmHg 47%
16:00 +34°C° 0 mm 2 mps 752 mmHg 46%
17:00 +31°C° 0 mm 2 mps 752 mmHg 53%
18:00 +30°C° 0 mm 2 mps 752 mmHg 60%
19:00 +28°C° 0 mm 3 mps 752 mmHg 68%
20:00 +27°C° 0.1 mm 3 mps 752 mmHg 71%
21:00 +26°C° 0.1 mm 3 mps 752 mmHg 74%
22:00 +24°C° 0.1 mm 3 mps 752 mmHg 78%
23:00 +24°C° 0.2 mm 2 mps 752 mmHg 81%

20 June, Sunday

Time Temperature Precipitation Wind Pressure Humidity
00:00 +23°C° 0.2 mm 2 mps 752 mmHg 85%
01:00 +22°C° 0.2 mm 1 mps 752 mmHg 89%
02:00 +22°C° 0 mm 1 mps 752 mmHg 90%
03:00 +21°C° 0 mm 2 mps 752 mmHg 91%
04:00 +20°C° 0 mm 2 mps 752 mmHg 92%
05:00 +23°C° 0 mm 2 mps 752 mmHg 88%
06:00 +24°C° 0 mm 2 mps 752 mmHg 84%
07:00 +25°C° 0 mm 2 mps 752 mmHg 80%
08:00 +26°C° 0 mm 2 mps 752 mmHg 74%
09:00 +28°C° 0 mm 3 mps 752 mmHg 68%
10:00 +29°C° 0 mm 3 mps 752 mmHg 62%
11:00 +30°C° 0 mm 3 mps 752 mmHg 58%
12:00 +31°C° 0 mm 3 mps 752 mmHg 55%
13:00 +33°C° 0 mm 3 mps 751 mmHg 51%
14:00 +33°C° 0 mm 3 mps 751 mmHg 52%
15:00 +32°C° 0 mm 4 mps 751 mmHg 52%
16:00 +32°C° 0 mm 4 mps 751 mmHg 52%
17:00 +30°C° 0 mm 4 mps 750 mmHg 58%
18:00 +29°C° 0 mm 3 mps 750 mmHg 64%
19:00 +27°C° 0 mm 3 mps 750 mmHg 69%
20:00 +26°C° 0 mm 3 mps 750 mmHg 71%
21:00 +25°C° 0 mm 4 mps 750 mmHg 72%
22:00 +23°C° 0 mm 4 mps 750 mmHg 74%
23:00 +22°C° 0 mm 4 mps 750 mmHg 75%

21 June, Monday

Time Temperature Precipitation Wind Pressure Humidity
00:00 +22°C° 0 mm 3 mps 750 mmHg 76%
01:00 +21°C° 0 mm 3 mps 750 mmHg 78%
02:00 +21°C° 0 mm 3 mps 750 mmHg 80%
03:00 +20°C° 0 mm 3 mps 750 mmHg 83%
04:00 +20°C° 0 mm 3 mps 750 mmHg 85%
05:00 +21°C° 0 mm 4 mps 749 mmHg 81%
06:00 +23°C° 0 mm 4 mps 749 mmHg 77%
07:00 +26°C° 0 mm 5 mps 749 mmHg 73%
08:00 +27°C° 0 mm 5 mps 749 mmHg 68%
09:00 +29°C° 0 mm 4 mps 749 mmHg 62%
10:00 +32°C° 0 mm 4 mps 749 mmHg 57%
11:00 +32°C° 0.1 mm 4 mps 749 mmHg 54%
12:00 +33°C° 0.1 mm 3 mps 749 mmHg 51%
13:00 +34°C° 0.1 mm 3 mps 748 mmHg 48%
14:00 +34°C° 0 mm 3 mps 748 mmHg 49%
15:00 +34°C° 0 mm 3 mps 748 mmHg 50%
16:00 +32°C° 0 mm 2 mps 748 mmHg 51%
17:00 +31°C° 0 mm 3 mps 748 mmHg 56%
18:00 +29°C° 0 mm 3 mps 748 mmHg 62%
19:00 +28°C° 0 mm 3 mps 748 mmHg 68%
20:00 +27°C° 0.3 mm 3 mps 748 mmHg 71%
21:00 +26°C° 0.3 mm 3 mps 748 mmHg 75%
22:00 +25°C° 0.3 mm 3 mps 748 mmHg 79%
23:00 +24°C° 0.2 mm 3 mps 748 mmHg 82%
Show more

We Need Your Consent

Meteoprog and our Service Providers may store and access personal data such as cookies, device identifiers or other similar technologies on your device and process such data to personalise content and ads, as well as provide social media features and to analyse the traffic.

  • Store and/or access information on your device

    Cookies, device identifiers or other information can be stored or accessed on your device for the purposes indicated above.

  • Personalised ads and content, ad and content measurement, audience insights, and products development

    Ads and content can be personalised based on a profile. More data can be added to better personalise ads and content. Ad and content performance can be measured. Insights about the audience who saw the ads and content can be derived. Such data can be used to develop or improve user’s experience, systems and software.

By clicking ‘I Agree’ you will allow the use of indicated cookies, device identifiers, web beacons or other similar technologies. Your settings can be changed in the browser on your device.

For certain purposes, legitimate interests may be relied on, rather than consent. You can read more about this in our Privacy and Cookie Policy.